Regional Weather Roundup
Issued by NWS

Home | Current Version | Previous Version | Text Only | Print | Product List | Glossary Off
Versions: 1 2 3 4 5 6 7 8 9 10 11 12 13 14 15 16 17 18 19 20 21 22 23 24 25 26 27 28 29 30 31 32 33 34 35 36 37 38 39 40 41 42 43 44 45 46 47 48 49 50

000
ASUS43 KLSX 221910
RWRMO

WEATHER SUMMARY FOR MISSOURI
NATIONAL WEATHER SERVICE SPRINGFIELD MO
200 PM CDT FRI JUL 22 2016

NOTE: "FAIR" INDICATES FEW OR NO CLOUDS BELOW 12,000 FEET WITH NO
       SIGNIFICANT WEATHER AND/OR OBSTRUCTIONS TO VISIBILITY.
       CURRENT SKY AND/OR WEATHER CONDITIONS ARE NOT AVAILABLE FOR
       CHILLICOTHE AND FARMINGTON.

MOZ001>031-035>038-043-044-053-054-222000-
...NORTHERN AND WESTERN MISSOURI...

CITY           SKY/WX    TMP DP  RH WIND       PRES   REMARKS
KANSAS CTY INT PTSUNNY   89  75  63 S22       30.03F HX  99
KANSAS C DTWN  MOSUNNY   91  73  55 SE15      30.03F HX  99
LEE`S SUMMIT   SUNNY     89  72  56 S13G22    30.06F HX  96
ST JOSEPH      CLOUDY    89  76  65 S15G25    30.00F HX 100
CHILLICOTHE      N/A     87  73  62 S15G23    30.03F HX  94
KIRKSVILLE     SUNNY     87  73  62 S9        30.04F HX  94

$$
MOZ066>068-077>081-088>096-101>105-222000-
...SOUTHWEST MISSOURI...

CITY           SKY/WX    TMP DP  RH WIND       PRES   REMARKS
SPRINGFIELD    MOSUNNY   92  75  57 NE13      30.08F HX 103
JOPLIN         SUNNY     94  74  52 S12       30.06F HX 104

$$
MOZ032>034-039>042-045>050-055>058-069>072-222000-
...CENTRAL MISSOURI...

CITY           SKY/WX    TMP DP  RH WIND       PRES   REMARKS
COLUMBIA       MOSUNNY   88  74  63 SW12      30.03F HX  96
JEFFERSON CITY CLOUDY    86  71  60 W6        30.01F HX  91
ROLLA          CLOUDY    84  72  67 SW15      30.02F
SEDALIA        PTSUNNY   89  74  60 S10       30.06F HX  98
WHITEMAN AFB   PTSUNNY   88  74  62 S14       30.04F HX  96
OSAGE BEACH    MOSUNNY   85  72  65 SW9       30.05F HX  91

$$
MOZ051-052-059>065-222000-
...EAST CENTRAL MISSOURI...

CITY           SKY/WX    TMP DP  RH WIND       PRES   REMARKS
ST LOUIS INTL  CLOUDY    82  71  69 E3        30.04F
SPIRIT OF STL  PTSUNNY   81  73  76 E5        30.02F
ST CHARLES     CLOUDY    82  75  79 E8        30.02F

$$
MOZ072>076-082>087-097>100-106>115-222000-
...SOUTH CENTRAL AND SOUTHEAST MISSOURI...

CITY           SKY/WX    TMP DP  RH WIND       PRES   REMARKS
CAPE GIRARDEAU CLOUDY    89  78  70 SW3       30.02R HX 103
FARMINGTON     CLOUDY    86  71  60 NW3       30.06S HX  91
POPLAR BLUFF   MOSUNNY   93  76  57 VRB3      30.00F HX 105
WEST PLAINS    SUNNY     92  73  53 N8        30.10F HX 100

$$




USA.gov is the U.S. government's official web portal to all federal, state and local government web resources and services.